Вернуться в каталог

COSMOS 970 DEB

АктивенLEO
NORAD 10889·DEBRIS·🇷🇺 Russia

Запущен Dec 21, 1977 с Baikonur Cosmodrome

Loading…

Ближайшие Пролёты (ближайшие 24 часа)

TLE

СвежийSource: Space-Track

Эпоха: Sep 14, 2026, 07:27 UTC

1 10889U 77121AL  26257.31073399  .00000237  00000-0  30636-3 0  9994
2 10889  65.8241 235.6601 0120019  87.4987 273.9810 13.76750695437208

Отслеживайте COSMOS 970 DEB в реальном времени с AllMySat

Download on the App Store